Location: Lane
(33.5226°N, 79.8788°W)
Time: 23:35:01
(UTC+00:00)

X-37B - Visible Passes

Search period start: 12 August 2022 00:00
Search period end: 22 August 2022 00:00
Orbit: 328 x 343 km, 45.0° (Epoch: 12 August)

Date Brightness Start Highest point End Pass type
(mag) Time Alt. Az. Time Alt. Az. Time Alt. Az.
12 Aug 3.4 09:33:33 10° NNW 09:34:54 12° NNE 09:36:15 10° NE visible
13 Aug 2.9 09:53:21 10° NNW 09:55:41 21° NNE 09:58:00 10° ENE visible
14 Aug 3.5 08:39:11 11° N 08:40:19 12° NNE 08:41:39 10° NE visible
15 Aug 2.9 08:59:19 13° NNW 09:01:06 21° NNE 09:03:24 10° ENE visible
16 Aug 1.1 09:19:47 18° NW 09:21:42 52° NNE 09:24:32 10° ESE visible
17 Aug 0.7 09:40:41 23° W 09:42:07 42° SW 09:44:52 10° SE visible
18 Aug 2.3 10:02:00 13° SW 10:02:20 13° SW 10:03:46 10° SSW visible
19 Aug 2.3 00:46:31 10° S 00:47:59 14° SE 00:47:59 14° SE visible
20 Aug 0.5 01:05:33 10° SW 01:08:15 45° SE 01:09:04 34° E visible
21 Aug 1.2 01:25:56 10° WSW 01:28:41 47° NNW 01:29:44 30° NNE visible
